Location: Sternwarte Stuttgart
(48.7670°N, 9.1830°E)
Time: 22:47:54
(UTC+01:00)

Cosmos 1943 Rocket - Pass Details

Date: 24 January 2019
Orbit: 811 x 845 km, 71.0° (Epoch: 22 February)

Event Time Altitude Azimuth Distance (km) Brightness Sun altitude
Exits shadow 07:00:59 12° 300° (WNW) 2,245 3.8 -10.3°
Maximum altitude 07:03:10 15° 326° (NW) 2,077 3.8 -9.9°
Drops below altitude 10° 07:06:21 10° 1° (N) 2,434 4.4 -9.4°
Sets 07:09:56 0° 24° (NNE) 3,378 5.4 -8.9°
